Location: *
(51.0333°S, 178.4667°E)
Time: 03:37:29
(UTC+00:00)

CZ-4 R/B - Pass Details

Date: 26 February 2020
Orbit: 531 x 599 km, 97.8° (Epoch: 04 April)

Event Time Altitude Azimuth Distance (km) Brightness Sun altitude
Rises 16:54:43 0° 63° (ENE) 2,712 5.5 -6.1°
Reaches altitude 10° 16:57:30 10° 85° (E) 1,839 5.2 -5.7°
Maximum altitude 16:59:53 16° 122° (ESE) 1,528 5.1 -5.3°
Drops below altitude 10° 17:02:18 10° 159° (SSE) 1,874 4.7 -5.0°
Sets 17:05:10 0° 180° (S) 2,794 5.2 -4.5°
